Location: Unspecified
(0.0000°N, 0.0000°E)
Time: 12:12:34
(UTC+00:00)

Envisat - Pass Details

Date: 06 December 2019
Orbit: 764 x 766 km, 98.1° (Epoch: 11 December)

Event Time Altitude Azimuth Distance (km) Brightness Sun altitude
Rises 18:11:35 0° 162° (SSE) 3,230 6.3 -4.7°
Reaches altitude 10° 18:13:55 10° 159° (SSE) 2,302 5.5 -5.3°
Maximum altitude 18:18:56 64° 78° (ENE) 844 3.0 -6.4°
Drops below altitude 10° 18:23:56 10° 357° (N) 2,291 5.3 -7.6°
Sets 18:26:14 0° 354° (N) 3,214 6.1 -8.1°
